Location: *
(13.0000°N, 151.6000°E)
Time: 15:30:07
(UTC+00:00)

PAYLOAD B - Pass Details

Date: 01 April 2020
Orbit: 850 x 871 km, 99.1° (Epoch: 04 June)

Event Time Altitude Azimuth Distance (km) Brightness Sun altitude
Rises 19:22:33 0° 8° (N) 3,406 7.6 -7.3°
Reaches altitude 10° 19:24:55 10° 6° (N) 2,472 6.8 -6.7°
Maximum altitude 19:30:22 67° 284° (WNW) 918 4.2 -5.4°
Drops below altitude 10° 19:35:49 10° 202° (SSW) 2,482 6.4 -4.1°
Sets 19:38:12 0° 199° (SSW) 3,420 7.1 -3.5°
